| time (UTC) | temp C | wind direction | speed KPH | gust KPH | rain 1hr cm | rain 24hr cm | rain mn cm | humidity % | barometer mb |
| 20260503010231 | 6 | 344 | 0.0 | 1.6 | 0.00 | 0.00 | 0.00 | 56 | |
| 20260503005729 | 6 | 344 | 0.0 | 0.0 | 0.00 | 0.00 | 0.00 | 56 | |
| 20260503005226 | 7 | 337 | 0.0 | 0.0 | 0.00 | 0.00 | 0.00 | 55 | |
| 20260503004722 | 7 | 340 | 0.0 | 0.0 | 0.00 | 0.00 | 0.00 | 55 | |
| 20260503004220 | 7 | 342 | 0.0 | 0.0 | 0.00 | 0.00 | 0.00 | 55 | |
| 20260503003717 | 7 | 329 | 0.0 | 1.6 | 0.00 | 0.00 | 0.00 | 55 | |
| 20260503003214 | 7 | 351 | 0.0 | 1.6 | 0.00 | 0.00 | 0.00 | 55 | |
| 20260503002711 | 7 | 348 | 0.0 | 0.0 | 0.00 | 0.00 | 0.00 | 54 | |
| 20260503002208 | 7 | 13 | 0.0 | 0.0 | 0.00 | 0.00 | 0.00 | 54 | |
| 20260503001703 | 7 | 13 | 0.0 | 0.0 | 0.00 | 0.00 | 0.00 | 54 | |
| 20260503001200 | 7 | 358 | 0.0 | 1.6 | 0.00 | 0.00 | 0.00 | 54 | |
| 20260503000658 | 7 | 347 | 0.0 | 0.0 | 0.00 | 0.00 | 0.00 | 54 | |
| 20260503000155 | 7 | 298 | 0.0 | 1.6 | 0.00 | 0.00 | 0.00 | 53 | |
| 20260502235652 | 7 | 340 | 0.0 | 0.0 | 0.00 | 0.00 | 0.00 | 53 | |
| 20260502235150 | 7 | 334 | 0.0 | 0.0 | 0.00 | 0.00 | 0.00 | 53 | |
| 20260502234646 | 7 | 357 | 0.0 | 3.2 | 0.00 | 0.00 | 0.00 | 52 | |
| 20260502234143 | 7 | 338 | 0.0 | 0.0 | 0.00 | 0.00 | 0.00 | 52 | |
| 20260502233639 | 7 | 12 | 0.0 | 3.2 | 0.00 | 0.00 | 0.00 | 51 | |
| 20260502233136 | 7 | 349 | 0.0 | 1.6 | 0.00 | 0.00 | 0.00 | 51 | |
| 20260502232632 | 7 | 332 | 0.0 | 1.6 | 0.00 | 0.00 | 0.00 | 51 | |
| 20260502232130 | 7 | 328 | 0.0 | 1.6 | 0.00 | 0.00 | 0.00 | 51 | |
| 20260502231626 | 7 | 0 | 1.6 | 1.6 | 0.00 | 0.00 | 0.00 | 51 | |
| 20260502231124 | 7 | 325 | 0.0 | 1.6 | 0.00 | 0.00 | 0.00 | 51 | |
| 20260502230622 | 7 | 341 | 1.6 | 1.6 | 0.00 | 0.00 | 0.00 | 50 | |
| 20260502230120 | 7 | 331 | 0.0 | 1.6 | 0.00 | 0.00 | 0.00 | 50 | |
| 20260502225615 | 7 | 298 | 0.0 | 0.0 | 0.00 | 0.00 | 0.00 | 51 | |
| 20260502225113 | 7 | 317 | 0.0 | 1.6 | 0.00 | 0.00 | 0.00 | 50 | |
| 20260502224609 | 7 | 325 | 0.0 | 1.6 | 0.00 | 0.00 | 0.00 | 50 | |
| 20260502224106 | 7 | 334 | 0.0 | 1.6 | 0.00 | 0.00 | 0.00 | 50 | |
| 20260502223604 | 7 | 343 | 0.0 | 1.6 | 0.00 | 0.00 | 0.00 | 50 | |
| 20260502223102 | 8 | 345 | 0.0 | 0.0 | 0.00 | 0.00 | 0.00 | 49 | |
| 20260502222559 | 8 | 342 | 0.0 | 0.0 | 0.00 | 0.00 | 0.00 | 50 | |
| 20260502222055 | 7 | 357 | 0.0 | 3.2 | 0.00 | 0.00 | 0.00 | 49 | |
| 20260502221551 | 8 | 353 | 0.0 | 3.2 | 0.00 | 0.00 | 0.00 | 48 | |
| 20260502221048 | 8 | 341 | 0.0 | 0.0 | 0.00 | 0.00 | 0.00 | 49 | |
| 20260502220544 | 8 | 1 | 1.6 | 4.8 | 0.00 | 0.00 | 0.00 | 50 | |
| 20260502220041 | 8 | 3 | 0.0 | 4.8 | 0.00 | 0.00 | 0.00 | 48 | |
| 20260502215538 | 8 | 348 | 0.0 | 3.2 | 0.00 | 0.00 | 0.00 | 50 | |
| 20260502215035 | 8 | 323 | 1.6 | 3.2 | 0.00 | 0.00 | 0.00 | 47 | |
| 20260502214532 | 8 | 306 | 0.0 | 0.0 | 0.00 | 0.00 | 0.00 | 47 | |
| 20260502214030 | 8 | 3 | 1.6 | 3.2 | 0.00 | 0.00 | 0.00 | 46 | |
| 20260502213526 | 8 | 322 | 3.2 | 8.0 | 0.00 | 0.00 | 0.00 | 47 | |
| 20260502213024 | 8 | 341 | 0.0 | 4.8 | 0.00 | 0.00 | 0.00 | 46 | |
| 20260502212523 | 8 | 1 | 1.6 | 8.0 | 0.00 | 0.00 | 0.00 | 46 | |
| 20260502212020 | 8 | 347 | 0.0 | 0.0 | 0.00 | 0.00 | 0.00 | 50 | |
| 20260502211515 | 8 | 13 | 4.8 | 9.7 | 0.00 | 0.00 | 0.00 | 49 | |
| 20260502211013 | 8 | 354 | 0.0 | 0.0 | 0.00 | 0.00 | 0.00 | 49 | |
| 20260502210510 | 8 | 7 | 0.0 | 3.2 | 0.00 | 0.00 | 0.00 | 48 | |
| 20260502210007 | 8 | 3 | 3.2 | 4.8 | 0.00 | 0.00 | 0.00 | 48 | |
| 20260502205503 | 8 | 344 | 1.6 | 11.3 | 0.00 | 0.00 | 0.00 | 47 | |
| 20260502205000 | 8 | 355 | 0.0 | 4.8 | 0.00 | 0.00 | 0.00 | 47 | |
| 20260502204457 | 8 | 7 | 0.0 | 1.6 | 0.00 | 0.00 | 0.00 | 49 | |
| 20260502203955 | 8 | 18 | 4.8 | 16.1 | 0.00 | 0.00 | 0.00 | 48 | |
| 20260502203451 | 8 | 355 | 0.0 | 3.2 | 0.00 | 0.00 | 0.00 | 50 | |
| 20260502202948 | 8 | 357 | 3.2 | 9.7 | 0.00 | 0.00 | 0.00 | 49 | |
| 20260502202445 | 9 | 345 | 0.0 | 0.0 | 0.00 | 0.00 | 0.00 | 46 | |
| 20260502201943 | 9 | 253 | 1.6 | 3.2 | 0.00 | 0.00 | 0.00 | 45 | |
| 20260502201438 | 8 | 323 | 0.0 | 4.8 | 0.00 | 0.00 | 0.00 | 46 | |
| 20260502200936 | 8 | 352 | 0.0 | 3.2 | 0.00 | 0.00 | 0.00 | 46 | |
| 20260502200431 | 8 | 0 | 3.2 | 8.0 | 0.00 | 0.00 | 0.00 | 48 | |
| 20260502195929 | 8 | 353 | 0.0 | 8.0 | 0.00 | 0.00 | 0.00 | 48 | |
| 20260502195426 | 8 | 336 | 0.0 | 3.2 | 0.00 | 0.00 | 0.00 | 49 | |
| 20260502194922 | 8 | 19 | 0.0 | 9.7 | 0.00 | 0.00 | 0.00 | 47 | |
| 20260502194420 | 8 | 356 | 0.0 | 4.8 | 0.00 | 0.00 | 0.00 | 47 | |
| 20260502193915 | 8 | 1 | 6.4 | 9.7 | 0.00 | 0.00 | 0.00 | 48 | |
| 20260502193413 | 8 | 344 | 0.0 | 3.2 | 0.00 | 0.00 | 0.00 | 49 | |
| 20260502192908 | 8 | 276 | 0.0 | 3.2 | 0.00 | 0.00 | 0.00 | 48 | |
| 20260502192405 | 8 | 350 | 1.6 | 8.0 | 0.00 | 0.00 | 0.00 | 48 | |
| 20260502191902 | 8 | 357 | 4.8 | 9.7 | 0.00 | 0.00 | 0.00 | 49 | |
| 20260502191400 | 8 | 343 | 0.0 | 1.6 | 0.00 | 0.00 | 0.00 | 48 | |
| 20260502190857 | 8 | 350 | 0.0 | 3.2 | 0.00 | 0.00 | 0.00 | 48 | |
| 20260502190354 | 8 | 49 | 0.0 | 8.0 | 0.00 | 0.00 | 0.00 | 48 | |
| 20260502185850 | 8 | 15 | 1.6 | 8.0 | 0.00 | 0.00 | 0.00 | 47 | |
| 20260502185346 | 8 | 7 | 0.0 | 4.8 | 0.00 | 0.00 | 0.00 | 50 | |
| 20260502184843 | 8 | 346 | 0.0 | 1.6 | 0.00 | 0.00 | 0.00 | 50 | |
| 20260502184338 | 8 | 335 | 1.6 | 4.8 | 0.00 | 0.00 | 0.00 | 48 | |
| 20260502183835 | 8 | 3 | 0.0 | 9.7 | 0.00 | 0.00 | 0.00 | 47 | |
| 20260502183332 | 8 | 344 | 0.0 | 3.2 | 0.00 | 0.00 | 0.00 | 50 | |
| 20260502182826 | 8 | 309 | 1.6 | 3.2 | 0.00 | 0.00 | 0.00 | 49 | |
| 20260502182322 | 9 | 8 | 3.2 | 4.8 | 0.00 | 0.00 | 0.00 | 46 | |
| 20260502181819 | 8 | 343 | 0.0 | 8.0 | 0.00 | 0.00 | 0.00 | 47 | |
| 20260502181318 | 8 | 303 | 0.0 | 9.7 | 0.00 | 0.00 | 0.00 | 48 | |
| 20260502180815 | 8 | 339 | 4.8 | 11.3 | 0.00 | 0.00 | 0.00 | 49 | |
| 20260502180313 | 8 | 339 | 1.6 | 3.2 | 0.00 | 0.00 | 0.00 | 49 | |
| 20260502170232 | 8 | 346 | 0.0 | 4.8 | 0.00 | 0.00 | 0.00 | 51 | |
| 20260502164219 | 7 | 323 | 1.6 | 8.0 | 0.00 | 0.00 | 0.00 | 55 | |
| 20260502163714 | 7 | 333 | 1.6 | 3.2 | 0.00 | 0.00 | 0.00 | 53 | |
| 20260502163211 | 7 | 11 | 1.6 | 4.8 | 0.00 | 0.00 | 0.00 | 51 | |
| 20260502162708 | 7 | 353 | 1.6 | 3.2 | 0.00 | 0.00 | 0.00 | 52 | |
| 20260502162205 | 8 | 323 | 3.2 | 8.0 | 0.00 | 0.00 | 0.00 | 53 | |
| 20260502161702 | 7 | 23 | 3.2 | 8.0 | 0.00 | 0.00 | 0.00 | 51 | |
| 20260502161158 | 7 | 337 | 1.6 | 3.2 | 0.00 | 0.00 | 0.00 | 53 | |
| 20260502160657 | 7 | 26 | 3.2 | 4.8 | 0.00 | 0.00 | 0.00 | 55 | |
| 20260502160156 | 7 | 9 | 1.6 | 4.8 | 0.00 | 0.00 | 0.00 | 54 | |
| 20260502152115 | 7 | 13 | 3.2 | 8.0 | 0.00 | 0.00 | 0.00 | 59 | |
| 20260502151612 | 7 | 329 | 1.6 | 8.0 | 0.00 | 0.00 | 0.00 | 61 | |
| 20260502151109 | 7 | 356 | 0.0 | 3.2 | 0.00 | 0.00 | 0.00 | 60 | |
| 20260502150607 | 7 | 359 | 0.0 | 3.2 | 0.00 | 0.00 | 0.00 | 61 | |
| 20260502130452 | 4 | 353 | 1.6 | 3.2 | 0.00 | 0.00 | 0.00 | 75 | |
| 20260502123434 | 3 | 359 | 3.2 | 8.0 | 0.00 | 0.00 | 0.00 | 76 | |
| 20260502122932 | 3 | 344 | 0.0 | 11.3 | 0.00 | 0.00 | 0.00 | 77 | |
| 20260502122427 | 3 | 350 | 0.0 | 1.6 | 0.00 | 0.00 | 0.00 | 77 | |
| 20260502121926 | 3 | 337 | 0.0 | 0.0 | 0.00 | 0.00 | 0.00 | 77 | |
| 20260502121422 | 2 | 356 | 3.2 | 9.7 | 0.00 | 0.00 | 0.00 | 77 | |
| 20260502120920 | 2 | 330 | 0.0 | 0.0 | 0.00 | 0.00 | 0.00 | 77 | |
| 20260502120416 | 2 | 336 | 0.0 | 3.2 | 0.00 | 0.00 | 0.00 | 77 | |
| 20260502115914 | 2 | 350 | 0.0 | 3.2 | 0.00 | 0.00 | 0.00 | 77 | |
| 20260502115411 | 2 | 359 | 1.6 | 3.2 | 0.00 | 0.00 | 0.00 | 78 | |
| 20260502114906 | 2 | 312 | 0.0 | 1.6 | 0.00 | 0.00 | 0.00 | 78 | |
| 20260502114404 | 2 | 290 | 0.0 | 1.6 | 0.00 | 0.00 | 0.00 | 79 | |
| 20260502113901 | 2 | 339 | 0.0 | 1.6 | 0.00 | 0.00 | 0.00 | 80 | |
| 20260502113358 | 2 | 342 | 0.0 | 0.0 | 0.00 | 0.00 | 0.00 | 81 | |
| 20260502112856 | 1 | 307 | 0.0 | 0.0 | 0.00 | 0.00 | 0.00 | 82 | |
| 20260502112354 | 1 | 349 | 0.0 | 0.0 | 0.00 | 0.00 | 0.00 | 83 | |
| 20260502111851 | 1 | 312 | 0.0 | 0.0 | 0.00 | 0.00 | 0.00 | 83 | |
| 20260502111348 | 1 | 317 | 0.0 | 0.0 | 0.00 | 0.00 | 0.00 | 83 | |
| 20260502110846 | 1 | 315 | 0.0 | 0.0 | 0.00 | 0.00 | 0.00 | 83 | |
| 20260502110344 | 1 | 295 | 0.0 | 0.0 | 0.00 | 0.00 | 0.00 | 84 | |
| 20260502105841 | 1 | 308 | 0.0 | 0.0 | 0.00 | 0.00 | 0.00 | 83 | |
| 20260502105338 | 1 | 324 | 0.0 | 0.0 | 0.00 | 0.00 | 0.00 | 83 | |
| 20260502104835 | 1 | 329 | 0.0 | 0.0 | 0.00 | 0.00 | 0.00 | 83 | |
| 20260502104333 | 1 | 325 | 0.0 | 0.0 | 0.00 | 0.00 | 0.00 | 83 | |
| 20260502103830 | 1 | 329 | 0.0 | 0.0 | 0.00 | 0.00 | 0.00 | 83 | |
| 20260502103327 | 1 | 328 | 0.0 | 0.0 | 0.00 | 0.00 | 0.00 | 83 | |
| 20260502102824 | 1 | 335 | 0.0 | 0.0 | 0.00 | 0.00 | 0.00 | 84 | |
| 20260502102320 | 1 | 330 | 0.0 | 0.0 | 0.00 | 0.00 | 0.00 | 84 | |
| 20260502101818 | 1 | 334 | 0.0 | 0.0 | 0.00 | 0.00 | 0.00 | 84 | |
| 20260502101316 | 1 | 324 | 0.0 | 0.0 | 0.00 | 0.00 | 0.00 | 84 | |
| 20260502100814 | 1 | 326 | 0.0 | 0.0 | 0.00 | 0.00 | 0.00 | 84 | |
| 20260502100313 | 1 | 332 | 0.0 | 0.0 | 0.00 | 0.00 | 0.00 | 84 | |
| 20260502091247 | 1 | 333 | 0.0 | 0.0 | 0.00 | 0.00 | 0.00 | 86 | |
| 20260502090744 | 1 | 339 | 0.0 | 0.0 | 0.00 | 0.00 | 0.00 | 86 | |
| 20260502090241 | 1 | 321 | 0.0 | 0.0 | 0.00 | 0.00 | 0.00 | 85 | |
| 20260502071136 | 2 | 316 | 0.0 | 0.0 | 0.00 | 0.00 | 0.00 | 91 | |
| 20260502070634 | 2 | 324 | 0.0 | 0.0 | 0.00 | 0.00 | 0.00 | 91 | |
| 20260502070132 | 2 | 323 | 0.0 | 0.0 | 0.00 | 0.00 | 0.00 | 91 | |
| 20260502065630 | 2 | 328 | 0.0 | 0.0 | 0.00 | 0.00 | 0.00 | 92 | |
| 20260502065127 | 2 | 329 | 0.0 | 0.0 | 0.00 | 0.00 | 0.00 | 92 | |
| 20260502064626 | 2 | 326 | 0.0 | 0.0 | 0.00 | 0.00 | 0.00 | 92 | |
| 20260502064122 | 2 | 322 | 0.0 | 0.0 | 0.00 | 0.00 | 0.00 | 92 | |
| 20260502063620 | 2 | 321 | 0.0 | 0.0 | 0.00 | 0.00 | 0.00 | 93 | |
| 20260502063118 | 2 | 317 | 0.0 | 0.0 | 0.00 | 0.00 | 0.00 | 93 | |
| 20260502062615 | 2 | 327 | 0.0 | 0.0 | 0.00 | 0.00 | 0.00 | 94 | |
| 20260502062112 | 2 | 319 | 0.0 | 0.0 | 0.00 | 0.00 | 0.00 | 94 | |
| 20260502061610 | 2 | 320 | 0.0 | 0.0 | 0.00 | 0.00 | 0.00 | 94 | |
| 20260502061108 | 2 | 315 | 0.0 | 0.0 | 0.00 | 0.00 | 0.00 | 94 | |
| 20260502060608 | 2 | 316 | 0.0 | 0.0 | 0.00 | 0.00 | 0.00 | 94 | |
| 20260502060105 | 2 | 315 | 0.0 | 0.0 | 0.00 | 0.00 | 0.00 | 94 | |
| 20260502055603 | 2 | 320 | 0.0 | 0.0 | 0.00 | 0.00 | 0.00 | 94 | |
| 20260502055101 | 2 | 320 | 0.0 | 0.0 | 0.00 | 0.00 | 0.00 | 94 | |
| 20260502054559 | 2 | 312 | 0.0 | 0.0 | 0.00 | 0.00 | 0.00 | 94 | |
| 20260502054055 | 2 | 320 | 0.0 | 0.0 | 0.00 | 0.00 | 0.00 | 94 | |
| 20260502053553 | 2 | 317 | 0.0 | 0.0 | 0.00 | 0.00 | 0.00 | 94 | |
| 20260502053050 | 2 | 320 | 0.0 | 0.0 | 0.00 | 0.00 | 0.00 | 94 | |
| 20260502052549 | 2 | 319 | 0.0 | 0.0 | 0.00 | 0.00 | 0.00 | 94 | |
| 20260502052046 | 2 | 321 | 0.0 | 0.0 | 0.00 | 0.00 | 0.00 | 94 | |
| 20260502051544 | 2 | 321 | 0.0 | 0.0 | 0.00 | 0.00 | 0.00 | 94 | |
| 20260502051042 | 2 | 323 | 0.0 | 0.0 | 0.00 | 0.00 | 0.00 | 94 | |
| 20260502050538 | 2 | 319 | 0.0 | 0.0 | 0.00 | 0.00 | 0.00 | 94 | |
| 20260502050035 | 3 | 319 | 0.0 | 0.0 | 0.00 | 0.00 | 0.00 | 94 | |
| 20260502045531 | 2 | 312 | 0.0 | 0.0 | 0.00 | 0.00 | 0.00 | 94 | |
| 20260502045029 | 3 | 321 | 0.0 | 0.0 | 0.00 | 0.00 | 0.00 | 94 | |
| 20260502044525 | 3 | 313 | 0.0 | 0.0 | 0.00 | 0.00 | 0.00 | 94 | |
| 20260502044022 | 3 | 316 | 0.0 | 0.0 | 0.00 | 0.00 | 0.00 | 94 | |
| 20260502043520 | 3 | 321 | 0.0 | 0.0 | 0.00 | 0.00 | 0.00 | 94 | |
| 20260502043015 | 3 | 320 | 0.0 | 0.0 | 0.00 | 0.00 | 0.00 | 94 | |
| 20260502042511 | 3 | 292 | 0.0 | 0.0 | 0.00 | 0.00 | 0.00 | 94 | |
| 20260502042009 | 3 | 321 | 0.0 | 0.0 | 0.00 | 0.00 | 0.00 | 94 | |
| 20260502041506 | 3 | 315 | 0.0 | 0.0 | 0.00 | 0.00 | 0.00 | 94 | |
| 20260502041003 | 3 | 298 | 0.0 | 0.0 | 0.00 | 0.00 | 0.00 | 94 | |
| 20260502040459 | 3 | 262 | 0.0 | 0.0 | 0.00 | 0.00 | 0.00 | 94 | |
| 20260502035956 | 3 | 320 | 0.0 | 0.0 | 0.00 | 0.25 | 0.25 | 94 | |
| 20260502035451 | 3 | 313 | 0.0 | 0.0 | 0.00 | 0.25 | 0.25 | 93 | |
| 20260502034950 | 3 | 305 | 0.0 | 0.0 | 0.00 | 0.25 | 0.25 | 93 | |
| 20260502034448 | 3 | 316 | 0.0 | 0.0 | 0.00 | 0.25 | 0.25 | 93 | |
| 20260502033946 | 3 | 320 | 0.0 | 0.0 | 0.00 | 0.25 | 0.25 | 93 | |
| 20260502033443 | 3 | 325 | 0.0 | 0.0 | 0.00 | 0.25 | 0.25 | 93 | |
| 20260502032940 | 3 | 321 | 0.0 | 0.0 | 0.00 | 0.25 | 0.25 | 93 | |
| 20260502032436 | 3 | 321 | 0.0 | 0.0 | 0.00 | 0.25 | 0.25 | 93 | |
| 20260502031934 | 3 | 318 | 0.0 | 0.0 | 0.00 | 0.25 | 0.25 | 93 | |
| 20260502031432 | 3 | 317 | 0.0 | 0.0 | 0.00 | 0.25 | 0.25 | 92 | |
| 20260502030930 | 3 | 321 | 0.0 | 0.0 | 0.00 | 0.25 | 0.25 | 92 | |
| 20260502030428 | 3 | 313 | 0.0 | 0.0 | 0.00 | 0.25 | 0.25 | 92 | |
| 20260502025926 | 3 | 306 | 0.0 | 0.0 | 0.00 | 0.25 | 0.25 | 92 | |
| 20260502025422 | 3 | 341 | 0.0 | 0.0 | 0.00 | 0.25 | 0.25 | 91 | |
| 20260502024920 | 4 | 336 | 0.0 | 0.0 | 0.00 | 0.25 | 0.25 | 91 | |
| 20260502024418 | 4 | 328 | 0.0 | 0.0 | 0.00 | 0.25 | 0.25 | 91 | |
| 20260502023916 | 4 | 347 | 0.0 | 0.0 | 0.00 | 0.25 | 0.25 | 91 | |
| 20260502023413 | 4 | 345 | 0.0 | 0.0 | 0.00 | 0.25 | 0.25 | 91 | |
| 20260502022911 | 3 | 333 | 0.0 | 0.0 | 0.00 | 0.25 | 0.25 | 90 | |
| 20260502022407 | 4 | 332 | 0.0 | 0.0 | 0.00 | 0.25 | 0.25 | 90 | |
| 20260502021904 | 4 | 332 | 0.0 | 0.0 | 0.00 | 0.25 | 0.25 | 90 | |
| 20260502021401 | 4 | 335 | 0.0 | 0.0 | 0.00 | 0.25 | 0.25 | 89 | |
| 20260502020858 | 4 | 340 | 0.0 | 0.0 | 0.00 | 0.25 | 0.25 | 89 | |
| 20260502020356 | 4 | 322 | 0.0 | 0.0 | 0.00 | 0.25 | 0.25 | 89 | |
| 20260502015853 | 5 | 319 | 0.0 | 0.0 | 0.00 | 0.25 | 0.25 | 88 | |
| 20260502015350 | 5 | 344 | 0.0 | 0.0 | 0.00 | 0.25 | 0.25 | 88 | |
| 20260502014847 | 5 | 347 | 0.0 | 0.0 | 0.00 | 0.25 | 0.25 | 88 | |
| 20260502014344 | 5 | 331 | 0.0 | 0.0 | 0.00 | 0.25 | 0.25 | 87 | |
| 20260502013840 | 5 | 329 | 0.0 | 0.0 | 0.00 | 0.25 | 0.25 | 87 | |
| 20260502013336 | 5 | 331 | 0.0 | 0.0 | 0.00 | 0.25 | 0.25 | 86 | |
| 20260502012832 | 5 | 334 | 0.0 | 0.0 | 0.00 | 0.25 | 0.25 | 84 | |
| 20260502012331 | 6 | 334 | 0.0 | 0.0 | 0.00 | 0.25 | 0.25 | 83 | |
| 20260502011827 | 6 | 341 | 0.0 | 0.0 | 0.00 | 0.25 | 0.25 | 81 | |
| 20260502011323 | 6 | 349 | 0.0 | 0.0 | 0.00 | 0.25 | 0.25 | 81 | |
| 20260502010821 | 6 | 1 | 0.0 | 0.0 | 0.00 | 0.25 | 0.25 | 81 |